Time,TemperatureF,DewpointF,PressureIn,WindDirection,WindDirectionDegrees,WindSpeedMPH,WindSpeedGustMPH,Humidity,HourlyPrecipIn,Conditions,Clouds,dailyrainin,SoftwareType,DateUTC
2013-04-25 00:04:00,64.4,62.0,0.00,ENE,76,0.0,-999.0,92,-99.99,,,0.22,weatherlink.com 1.10,2013-04-25 05:04:00,
2013-04-25 00:19:00,65.2,63.0,0.00,NNW,339,6.0,-999.0,92,-99.99,,,0.00,weatherlink.com 1.10,2013-04-25 05:19:00,
2013-04-25 00:34:00,65.8,64.0,0.00,NNE,25,9.0,-999.0,92,-99.99,,,0.00,weatherlink.com 1.10,2013-04-25 05:34:00,
2013-04-25 00:49:00,65.6,63.0,0.00,NNE,13,5.0,-999.0,92,-99.99,,,0.00,weatherlink.com 1.10,2013-04-25 05:49:00,
2013-04-25 01:04:00,65.1,63.0,0.00,NNE,12,8.0,-999.0,92,-99.99,,,0.00,weatherlink.com 1.10,2013-04-25 06:04:00,
2013-04-25 01:19:00,64.5,62.0,0.00,NNE,15,9.0,-999.0,92,-99.99,,,0.00,weatherlink.com 1.10,2013-04-25 06:19:00,
2013-04-25 01:34:00,63.3,61.0,0.00,NNW,341,17.0,-999.0,92,-99.99,,,0.00,weatherlink.com 1.10,2013-04-25 06:34:00,
2013-04-25 01:49:00,62.2,60.0,0.00,North,350,12.0,-999.0,92,-99.99,,,0.00,weatherlink.com 1.10,2013-04-25 06:49:00,
2013-04-25 02:04:00,61.5,59.0,0.00,North,355,11.0,-999.0,92,-99.99,,,0.00,weatherlink.com 1.10,2013-04-25 07:04:00,
2013-04-25 02:19:00,60.9,59.0,0.00,North,350,7.0,-999.0,92,-99.99,,,0.00,weatherlink.com 1.10,2013-04-25 07:19:00,
2013-04-25 02:34:00,60.4,58.0,0.00,NNE,26,7.0,-999.0,92,-99.99,,,0.00,weatherlink.com 1.10,2013-04-25 07:34:00,
2013-04-25 02:49:00,60.1,58.0,0.00,North,355,9.0,-999.0,92,-99.99,,,0.00,weatherlink.com 1.10,2013-04-25 07:49:00,
2013-04-25 03:04:00,59.7,57.0,0.00,NNE,18,10.0,-999.0,92,-99.99,,,0.00,weatherlink.com 1.10,2013-04-25 08:04:00,
2013-04-25 03:19:00,59.5,57.0,0.00,North,9,5.0,-999.0,92,-99.99,,,0.00,weatherlink.com 1.10,2013-04-25 08:19:00,
2013-04-25 03:34:00,59.2,57.0,0.00,NE,36,9.0,-999.0,92,-99.99,,,0.00,weatherlink.com 1.10,2013-04-25 08:34:00,
2013-04-25 03:49:00,59.2,57.0,0.00,North,355,2.0,-999.0,92,-99.99,,,0.00,weatherlink.com 1.10,2013-04-25 08:49:00,
2013-04-25 04:04:00,59.0,57.0,0.00,NNE,23,3.0,-999.0,92,-99.99,,,0.00,weatherlink.com 1.10,2013-04-25 09:04:00,
2013-04-25 04:19:00,58.9,57.0,0.00,NNE,15,5.0,-999.0,92,-99.99,,,0.00,weatherlink.com 1.10,2013-04-25 09:19:00,
2013-04-25 04:34:00,58.8,57.0,0.00,NE,34,7.0,-999.0,92,-99.99,,,0.00,weatherlink.com 1.10,2013-04-25 09:34:00,
2013-04-25 04:49:00,58.6,56.0,0.00,NNW,347,10.0,-999.0,92,-99.99,,,0.00,weatherlink.com 1.10,2013-04-25 09:49:00,
2013-04-25 05:04:00,58.2,56.0,0.00,North,5,12.0,-999.0,92,-99.99,,,0.00,weatherlink.com 1.10,2013-04-25 10:04:00,
2013-04-25 05:19:00,57.8,56.0,0.00,NNW,343,7.0,-999.0,92,-99.99,,,0.00,weatherlink.com 1.10,2013-04-25 10:19:00,
2013-04-25 05:34:00,57.6,55.0,0.00,North,11,10.0,-999.0,92,-99.99,,,0.00,weatherlink.com 1.10,2013-04-25 10:34:00,
2013-04-25 05:49:00,57.3,55.0,0.00,North,351,10.0,-999.0,92,-99.99,,,0.00,weatherlink.com 1.10,2013-04-25 10:49:00,
2013-04-25 06:04:00,56.7,55.0,0.00,North,5,13.0,-999.0,92,-99.99,,,0.00,weatherlink.com 1.10,2013-04-25 11:04:00,
2013-04-25 06:20:00,56.4,54.0,0.00,NNE,15,4.0,-999.0,92,-99.99,,,0.00,weatherlink.com 1.10,2013-04-25 11:20:00,
2013-04-25 06:35:00,56.3,54.0,0.00,NNE,13,13.0,-999.0,92,-99.99,,,0.00,weatherlink.com 1.10,2013-04-25 11:35:00,
2013-04-25 06:50:00,56.3,54.0,0.00,NNE,17,4.0,-999.0,92,-99.99,,,0.00,weatherlink.com 1.10,2013-04-25 11:50:00,
2013-04-25 07:05:00,56.2,54.0,0.00,North,5,5.0,-999.0,92,-99.99,,,0.00,weatherlink.com 1.10,2013-04-25 12:05:00,
2013-04-25 07:20:00,56.4,54.0,0.00,North,5,9.0,-999.0,92,-99.99,,,0.00,weatherlink.com 1.10,2013-04-25 12:20:00,
2013-04-25 07:35:00,56.4,54.0,0.00,North,9,7.0,-999.0,92,-99.99,,,0.00,weatherlink.com 1.10,2013-04-25 12:35:00,
2013-04-25 07:50:00,56.6,54.0,0.00,North,350,6.0,-999.0,92,-99.99,,,0.00,weatherlink.com 1.10,2013-04-25 12:50:00,
2013-04-25 08:05:00,56.7,55.0,0.00,North,349,12.0,-999.0,92,-99.99,,,0.00,weatherlink.com 1.10,2013-04-25 13:05:00,
2013-04-25 08:20:00,56.5,54.0,0.00,NNW,342,9.0,-999.0,92,-99.99,,,0.00,weatherlink.com 1.10,2013-04-25 13:20:00,
2013-04-25 08:35:00,56.7,55.0,0.00,NNE,15,15.0,-999.0,92,-99.99,,,0.00,weatherlink.com 1.10,2013-04-25 13:35:00,
2013-04-25 08:50:00,56.8,54.0,0.00,NNE,15,0.0,-999.0,91,-99.99,,,0.00,weatherlink.com 1.10,2013-04-25 13:50:00,
2013-04-25 09:05:00,57.2,55.0,0.00,NNE,14,3.0,-999.0,91,-99.99,,,0.00,weatherlink.com 1.10,2013-04-25 14:05:00,
2013-04-25 09:20:00,57.7,55.0,0.00,North,5,6.0,-999.0,90,-99.99,,,0.00,weatherlink.com 1.10,2013-04-25 14:20:00,
2013-04-25 09:35:00,58.6,56.0,0.00,North,350,9.0,-999.0,91,-99.99,,,0.00,weatherlink.com 1.10,2013-04-25 14:35:00,
2013-04-25 09:50:00,59.2,56.0,0.00,NNE,13,5.0,-999.0,89,-99.99,,,0.00,weatherlink.com 1.10,2013-04-25 14:50:00,
2013-04-25 10:05:00,59.9,56.0,0.00,NNE,31,7.0,-999.0,88,-99.99,,,0.00,weatherlink.com 1.10,2013-04-25 15:05:00,
2013-04-25 10:20:00,60.8,57.0,0.00,North,350,10.0,-999.0,88,-99.99,,,0.00,weatherlink.com 1.10,2013-04-25 15:20:00,
2013-04-25 10:35:00,61.8,58.0,0.00,NNE,26,4.0,-999.0,86,-99.99,,,0.00,weatherlink.com 1.10,2013-04-25 15:35:00,
2013-04-25 10:50:00,63.2,58.0,0.00,North,5,7.0,-999.0,84,-99.99,,,0.00,weatherlink.com 1.10,2013-04-25 15:50:00,
2013-04-25 11:05:00,64.5,60.0,0.00,ENE,65,0.0,-999.0,84,-99.99,,,0.00,weatherlink.com 1.10,2013-04-25 16:05:00,
2013-04-25 11:20:00,66.1,60.0,0.00,North,9,5.0,-999.0,81,-99.99,,,0.00,weatherlink.com 1.10,2013-04-25 16:20:00,
2013-04-25 11:35:00,64.0,60.0,0.00,NW,320,12.0,-999.0,86,-99.99,,,0.00,weatherlink.com 1.10,2013-04-25 16:35:00,
2013-04-25 11:50:00,64.0,60.0,0.00,NNW,328,11.0,-999.0,86,-99.99,,,0.00,weatherlink.com 1.10,2013-04-25 16:50:00,
2013-04-25 12:05:00,64.7,61.0,0.00,NNW,338,12.0,-999.0,86,-99.99,,,0.00,weatherlink.com 1.10,2013-04-25 17:05:00,
2013-04-25 12:20:00,65.6,61.0,0.00,NNW,344,14.0,-999.0,85,-99.99,,,0.00,weatherlink.com 1.10,2013-04-25 17:20:00,
2013-04-25 12:35:00,66.0,61.0,0.00,NNW,335,13.0,-999.0,84,-99.99,,,0.00,weatherlink.com 1.10,2013-04-25 17:35:00,
2013-04-25 12:50:00,66.6,62.0,0.00,NNW,336,12.0,-999.0,84,-99.99,,,0.00,weatherlink.com 1.10,2013-04-25 17:50:00,
2013-04-25 13:05:00,67.4,62.0,0.00,NNW,333,16.0,-999.0,83,-99.99,,,0.00,weatherlink.com 1.10,2013-04-25 18:05:00,
2013-04-25 13:20:00,67.7,62.0,0.00,NNW,327,14.0,-999.0,83,-99.99,,,0.00,weatherlink.com 1.10,2013-04-25 18:20:00,
2013-04-25 13:35:00,68.1,62.0,0.00,NW,323,14.0,-999.0,82,-99.99,,,0.00,weatherlink.com 1.10,2013-04-25 18:35:00,
2013-04-25 13:50:00,68.4,63.0,0.00,NW,316,12.0,-999.0,83,-99.99,,,0.00,weatherlink.com 1.10,2013-04-25 18:50:00,
2013-04-25 14:05:00,68.3,62.0,0.00,NW,316,13.0,-999.0,81,-99.99,,,0.00,weatherlink.com 1.10,2013-04-25 19:05:00,
2013-04-25 14:20:00,68.4,62.0,0.00,NNW,329,15.0,-999.0,81,-99.99,,,0.00,weatherlink.com 1.10,2013-04-25 19:20:00,
2013-04-25 14:35:00,68.8,63.0,0.00,NNW,333,16.0,-999.0,81,-99.99,,,0.00,weatherlink.com 1.10,2013-04-25 19:35:00,
2013-04-25 14:50:00,69.2,62.0,0.00,NNW,330,15.0,-999.0,79,-99.99,,,0.00,weatherlink.com 1.10,2013-04-25 19:50:00,
2013-04-25 15:05:00,69.8,63.0,0.00,NNW,331,17.0,-999.0,80,-99.99,,,0.00,weatherlink.com 1.10,2013-04-25 20:05:00,
2013-04-25 15:20:00,70.2,63.0,0.00,NNW,333,13.0,-999.0,77,-99.99,,,0.00,weatherlink.com 1.10,2013-04-25 20:20:00,
2013-04-25 15:35:00,70.7,64.0,0.00,NNW,329,14.0,-999.0,78,-99.99,,,0.00,weatherlink.com 1.10,2013-04-25 20:35:00,
2013-04-25 15:50:00,71.3,63.0,0.00,NNW,331,14.0,-999.0,76,-99.99,,,0.00,weatherlink.com 1.10,2013-04-25 20:50:00,
2013-04-25 16:05:00,71.5,64.0,0.00,NNW,334,14.0,-999.0,77,-99.99,,,0.00,weatherlink.com 1.10,2013-04-25 21:05:00,
2013-04-25 16:20:00,72.3,64.0,0.00,NNW,337,10.0,-999.0,74,-99.99,,,0.00,weatherlink.com 1.10,2013-04-25 21:20:00,
2013-04-25 16:35:00,72.8,64.0,0.00,NNW,332,14.0,-999.0,74,-99.99,,,0.00,weatherlink.com 1.10,2013-04-25 21:35:00,
2013-04-25 16:50:00,73.3,65.0,0.00,North,350,13.0,-999.0,74,-99.99,,,0.00,weatherlink.com 1.10,2013-04-25 21:50:00,
2013-04-25 17:05:00,73.5,64.0,0.00,NNW,336,15.0,-999.0,73,-99.99,,,0.00,weatherlink.com 1.10,2013-04-25 22:05:00,
2013-04-25 17:20:00,73.5,64.0,0.00,NNW,340,14.0,-999.0,73,-99.99,,,0.00,weatherlink.com 1.10,2013-04-25 22:20:00,
2013-04-25 17:35:00,73.7,63.0,0.00,NNW,338,17.0,-999.0,69,-99.99,,,0.00,weatherlink.com 1.10,2013-04-25 22:35:00,
2013-04-25 17:50:00,74.0,62.0,25.58,North,351,10.0,-999.0,66,-99.99,,,0.00,weatherlink.com 1.10,2013-04-25 22:50:00,
2013-04-25 18:05:00,74.7,61.0,25.58,North,360,7.0,-999.0,63,-99.99,,,0.00,weatherlink.com 1.10,2013-04-25 23:05:00,
2013-04-25 18:21:00,73.8,59.0,25.58,NNE,25,9.0,-999.0,60,-99.99,,,0.00,weatherlink.com 1.10,2013-04-25 23:21:00,
2013-04-25 18:36:00,73.0,57.0,25.58,North,9,9.0,-999.0,57,-99.99,,,0.00,weatherlink.com 1.10,2013-04-25 23:36:00,
2013-04-25 18:51:00,72.1,57.0,24.65,NNE,20,10.0,-999.0,59,-99.99,,,0.00,weatherlink.com 1.10,2013-04-25 23:51:00,
2013-04-25 19:06:00,71.3,55.0,24.65,North,355,10.0,-999.0,56,-99.99,,,0.00,weatherlink.com 1.10,2013-04-26 00:06:00,
2013-04-25 19:21:00,70.5,55.0,24.65,North,360,4.0,-999.0,59,-99.99,,,0.00,weatherlink.com 1.10,2013-04-26 00:21:00,
2013-04-25 19:36:00,69.6,55.0,24.65,NNE,22,3.0,-999.0,60,-99.99,,,0.00,weatherlink.com 1.10,2013-04-26 00:36:00,
2013-04-25 19:51:00,68.8,55.0,27.47,NNE,15,4.0,-999.0,61,-99.99,,,0.00,weatherlink.com 1.10,2013-04-26 00:51:00,
2013-04-25 20:06:00,67.9,54.0,29.12,North,5,2.0,-999.0,61,-99.99,,,0.00,weatherlink.com 1.10,2013-04-26 01:06:00,
2013-04-25 20:21:00,67.3,54.0,29.12,NNE,19,0.0,-999.0,62,-99.99,,,0.00,weatherlink.com 1.10,2013-04-26 01:21:00,
2013-04-25 20:36:00,66.7,55.0,29.12,NNE,17,1.0,-999.0,66,-99.99,,,0.00,weatherlink.com 1.10,2013-04-26 01:36:00,
2013-04-25 20:51:00,66.3,53.0,29.12,NNE,32,2.0,-999.0,62,-99.99,,,0.00,weatherlink.com 1.10,2013-04-26 01:51:00,
2013-04-25 21:06:00,65.8,52.0,29.12,NNE,21,3.0,-999.0,62,-99.99,,,0.00,weatherlink.com 1.10,2013-04-26 02:06:00,
2013-04-25 21:21:00,65.8,52.0,29.12,NNE,19,0.0,-999.0,61,-99.99,,,0.00,weatherlink.com 1.10,2013-04-26 02:21:00,
2013-04-25 21:36:00,65.4,51.0,29.12,East,94,1.0,-999.0,59,-99.99,,,0.00,weatherlink.com 1.10,2013-04-26 02:36:00,
2013-04-25 21:51:00,65.0,51.0,29.12,NE,38,1.0,-999.0,61,-99.99,,,0.00,weatherlink.com 1.10,2013-04-26 02:51:00,
2013-04-25 22:06:00,64.5,50.0,29.12,NE,38,0.0,-999.0,60,-99.99,,,0.00,weatherlink.com 1.10,2013-04-26 03:06:00,
2013-04-25 22:21:00,64.0,50.0,29.12,NNE,32,1.0,-999.0,61,-99.99,,,0.00,weatherlink.com 1.10,2013-04-26 03:21:00,
2013-04-25 22:36:00,63.5,50.0,29.12,NNE,32,0.0,-999.0,62,-99.99,,,0.00,weatherlink.com 1.10,2013-04-26 03:36:00,
2013-04-25 22:51:00,63.1,50.0,29.12,North,11,0.0,-999.0,63,-99.99,,,0.00,weatherlink.com 1.10,2013-04-26 03:51:00,
2013-04-25 23:06:00,62.8,50.0,29.12,NNE,12,0.0,-999.0,63,-99.99,,,0.00,weatherlink.com 1.10,2013-04-26 04:06:00,
2013-04-25 23:21:00,62.6,51.0,29.12,ENE,57,0.0,-999.0,65,-99.99,,,0.00,weatherlink.com 1.10,2013-04-26 04:21:00,
2013-04-25 23:36:00,62.5,50.0,29.12,NNE,26,2.0,-999.0,64,-99.99,,,0.00,weatherlink.com 1.10,2013-04-26 04:36:00,
2013-04-25 23:51:00,62.2,50.0,29.12,North,360,0.0,-999.0,65,-99.99,,,0.00,weatherlink.com 1.10,2013-04-26 04:51:00,